Probability
0 0 0 0 0 0 0 0 0 0 0 0 0 0 0 0 0 0 0 0 0 0 0 0 0 0 0 0 0 0 0 0 0 0 0 0 0 0 0 0 0 0 0 0
0 0 0 0 0 0 0 0 0 0 0 0 0 0 0 0 0 0 0 0 0 0 0 0 0 0 0 0 0 0 0 0 0 0 0 0 0 0 0 0 0 0 0 0
0 0 0 0 0 0 0 0 0 0 0 0 0 0 0 0 0 0 0 0 0 0 0 0 0 0 0 0 0 0 0 0 0 0 0 0 0 0 0 0 0 0 0 0
0 0 0 0 0 0 0 0 0 0 0 0 0 0 0 0 0 0 0 0 0 0 0 0 0 0 0 0 0 0 0 0 0 0 0 0 0 0 0 0 0 0 0 0
0 0 0 0 0 0 0 0 0 0 0 0 0 0 0 0 0 0 0 0 0 0 0 0 0 0 0 0 0 0 0 0 0 0 0 0 0 0 0 0 0 0 0 0
0 0 0 0 0 0 0 0 0 0 0 0 0 0 0 0 0 0 0 0 0 0 0 0 0 0 0 0 0 0 0 0 0 0 0 0 0 0 0 0 0 0 0 0
0 0 0 0 0 0 0 0 0 0 0 0 0 0 0 0 0 0 0 0 0 0 0 0 0 0 0 0 0 0 0 0 0 0 0 0 0 0 0 0 0 0 0 0
0 0 0 0 0 0 0 0 0 0 0 0 0 0 0 0 0 0 0 0 0 0 0 0 0 0 0 0 0 0 0 0 0 0 0 0 0 0 0 0 0 0 0 0
0 0 0 0 0 0 0 0 0 0 0 0 0 0 0 0 0 0 0 0 0 0 0 0 0 0 0 0 0 0 0 0 0 0 0 0 0 0 0 0 0 0 0 0
0 0 0 0 0 0 0 0 0 0 0 0 0 0 0 0 0 0 0 0 0 0 0 0 0 0 0 0 0 0 0 0 0 0 0 0 0 0 0 0 0 0 0 0
0 0 0 0 0 0 0 0 0 0 0 0 0 0 0 0 0 0 0 0 0 0 0 0 0 0 0 0 0 0 0 0 0 0 0 0 0 0 0 0 0 0 0 0
0 0 0 0 0 0 0 0 0 0 0 0 0 0 0 0 0 0 0 0 0 0 0 0 0 0 0 0 0 0 0 0 0 0 0 0 0 0 0 0 0 0 0 0
0 0 0 0 0 0 0 0 0 0 0 0 0 0 0 0 0 0 0 0 0 0 0 0 0 0 0 0 0 0 0 0 0 0 0 0 0 0 0 0 0 0 0 0
0 0 0 0 0 0 0 0 0 0 0 0 0 0 0 0 0 0 0 0 0 0 0 0 0 0 0 0 0 0 0 0 0 0 0 0 0 0 0 0 0 0 0 0
0 0 0 0 0 0 0 0 0 0 0 0 0 0 0 0 0 0 0 0 0 0 0 0 0 0 0 0 0 0 0 0 0 0 0 0 0 0 0 0 0 0 0 0
0 0 0 0 0 0 0 0 0 0 0 0 0 0 0 0 0 0 0 0 0 0 0 0 0 0 0 0 0 0 0 0 0 0 0 0 0 0 0 0 0 0 0 0
0 0 0 0 0 0 0 0 0 0 0 0 0 0 0 0 0 0 0 0 0 0 0 0 0 0 0 0 0 0 0 0 0 0 0 0 0 0 0 0 0 0 0 0
0 0 0 0 0 0 0 0 0 0 0 0 0 0 0 0 0 0 0 0 0 0 0 0 0 0 0 0 0 0 0 0 0 0 0 0 0 0 0 0 0 0 0 0
0 0 0 0 0 0 0 0 0 0 0 0 0 0 0 0 0 0 0 0 0 0 0 0 0 0 0 0 0 0 0 0 0 0 0 0 0 0 0 0 0 0 0 0
0 0 0 0 0 0 0 0 0 0 0 0 0 0 0 0 0 0 0 0 0 0 0 0 0 0 0 0 0 0 0 0 0 0 0 0 0 0 0 0 0 0 0 0
0 0 0 0 0 0 0 0 0 0 0 0 0 0 0 0 0 0 0 0 0 0 0 0 0 0 0 0 0 0 0 0 0 0 0 0 0 0 0 0 0 0 0 0
0 0 0 0 0 0 0 0 0 0 0 0 0 0 0 0 0 0 0 0 0 0 0 0 0 0 0 0 0 0 0 0 0 0 0 0 0 0 0 0 0 0 0 0
0 0 0 0 0 0 0 0 0 0 0 0 0 0 0 0 0 0 0 0 0 0 0 0 0 0 0 0 0 0 0 0 0 0 0 0 0 0 0 0 0 0 0 0
0 0 0 0 0 0 0 0 0 0 0 0 0 0 0 0 0 0 0 0 0 0 0 0 0 0 0 0 0 0 0 0 0 0 0 0 0 0 0 0 0 0 0 0
0 0 0 0 0 0 0 0 0 0 0 0 0 0 0 0 0 0 0 0 0 0 0 0 0 0 0 0 0 0 0 0 0 0 0 0 0 0 0 0 0 0 0 0
0 0 0 0 0 0 0 0 0 0 0 0 0 0 0 0 0 0 0 0 0 0 0 0 0 0 0 0 0 0 0 0 0 0 0 0 0 0 0 0 0 0 0 0
0 0 0 0 0 0 0 0 0 0 0 0 0 0 0 0 0 0 0 0 0 0 0 0 0 0 0 0 0 0 0 0 0 0 0 0 0 0 0 0 0 0 0 0
Wind_Speed
0 1 3 4 7 9 9 7 5 3 2 6 7 6 5 4 5 5 6 6 5 3 3 3 3 3 4 4 4 5 5 6 6 6 6 7 7 7 8 9 10 9 10 10
2 3 3 5 7 10 11 12 9 7 6 3 2 4 3 3 4 4 5 6 5 4 4 3 3 3 4 4 4 5 5 5 5 6 6 7 7 7 8 9 10 10 10 10
2 3 2 8 12 14 11 9 10 12 8 4 3 4 3 3 3 4 5 7 6 5 4 4 4 4 4 4 4 5 5 5 6 6 6 6 7 8 9 9 9 10 9 10
1 2 6 5 1 7 11 11 9 6 5 4 3 2 2 2 2 4 7 6 6 5 5 4 4 4 4 4 4 4 5 5 5 5 6 6 6 7 7 7 7 7 8 8
2 4 7 5 4 4 5 6 11 10 6 3 1 0 1 3 4 5 6 6 6 5 5 5 5 4 5 4 4 5 4 5 5 5 5 5 6 6 5 5 6 5 5 5
3 3 4 1 5 3 2 4 4 7 6 5 4 2 2 5 6 6 7 6 6 5 5 5 4 5 5 5 5 4 4 4 4 4 5 4 4 4 3 4 4 3 3 3
4 4 6 2 5 4 3 1 4 5 4 3 3 2 5 6 5 6 6 6 6 5 5 5 5 5 5 5 4 4 4 4 4 4 4 4 3 2 2 2 2 3 3 3
5 5 6 5 5 3 2 4 5 5 4 3 4 5 5 5 6 6 6 6 6 5 5 4 5 6 6 5 4 4 4 4 4 3 3 3 3 2 1 2 2 2 2 3
6 5 2 4 3 3 3 3 3 3 3 3 3 4 5 6 6 6 6 6 6 6 6 5 5 6 7 6 5 5 5 4 4 4 3 2 2 1 1 1 2 1 2 2
2 3 4 5 3 3 2 2 3 3 2 2 2 3 5 6 6 7 7 7 6 7 7 6 6 6 7 7 6 5 5 5 4 3 3 2 2 2 2 2 2 2 2 2
4 4 2 4 5 4 4 4 3 2 1 1 2 2 4 5 6 7 7 7 7 7 7 7 7 6 7 7 6 6 5 4 4 3 3 3 3 3 3 3 3 2 1 1
3 3 3 3 4 5 5 3 2 1 0 1 2 3 3 4 6 7 7 7 7 7 7 8 8 7 7 7 6 6 5 4 3 3 2 3 3 2 3 3 3 3 2 1
0 3 5 6 6 5 4 3 2 1 1 2 2 3 3 4 5 6 7 8 9 8 8 8 8 8 8 7 6 6 6 5 4 3 3 2 2 2 1 1 3 2 2 2
2 2 2 3 4 4 3 2 1 2 2 2 2 2 2 3 4 6 7 8 8 8 8 8 8 8 8 7 7 6 6 6 5 4 3 3 2 2 1 1 1 2 4 5
2 2 3 4 4 3 2 1 1 2 2 2 2 2 3 4 5 5 5 6 7 7 8 8 9 8 8 8 7 7 6 4 4 3 3 3 2 2 1 1 2 2 2 3
4 4 3 3 2 1 0 1 2 3 3 3 3 3 4 4 4 4 5 7 8 9 9 9 9 8 9 8 8 6 5 8 7 4 4 3 3 2 2 2 2 2 2 2
4 3 2 1 1 0 1 2 3 4 4 4 4 4 3 3 4 4 5 6 6 7 7 8 8 8 9 9 8 6 5 6 9 5 4 3 3 3 3 2 2 3 3 4
4 4 3 2 1 2 2 3 3 4 5 5 4 4 4 4 5 5 5 5 5 5 6 7 7 8 9 8 7 6 5 5 5 4 4 4 3 3 3 3 3 3 3 4
5 4 4 3 3 2 3 3 4 5 5 4 4 4 4 4 4 3 4 6 7 7 6 7 12 10 9 9 9 5 6 6 5 4 4 5 4 3 3 3 3 3 3 3
4 4 3 3 3 2 3 4 5 4 4 4 4 3 3 2 2 3 4 5 5 4 5 8 9 8 8 9 11 6 6 6 6 5 4 4 4 4 4 4 4 4 4 4
4 3 3 3 3 3 3 4 5 5 5 4 4 3 3 2 1 2 3 3 3 4 6 11 7 6 7 9 11 6 6 6 6 5 5 5 4 4 4 4 4 4 4 4
3 3 3 3 3 3 3 4 4 5 5 5 4 3 2 2 1 1 2 2 2 6 5 5 5 8 10 11 6 6 6 6 5 5 5 5 5 4 4 4 4 4 4 4
2 2 2 3 3 3 3 3 4 4 4 4 4 3 3 2 1 2 2 1 2 6 5 4 7 12 15 9 6 6 6 6 6 5 5 5 5 4 4 5 4 4 4 4
1 2 2 3 3 3 3 4 4 3 4 4 3 3 3 2 2 1 1 2 4 5 4 6 11 13 13 6 5 6 6 6 5 5 5 4 4 4 4 4 4 4 4 5
1 0 1 2 2 2 3 4 4 4 4 3 3 3 2 2 2 2 2 3 5 4 3 6 10 11 8 5 5 5 5 5 5 5 5 4 4 4 4 4 4 4 4 5
1 1 1 1 1 1 2 2 3 3 3 3 3 2 2 2 2 2 2 2 3 4 2 2 4 6 4 5 5 5 5 5 5 5 5 5 5 5 4 4 5 4 4 5
2 2 2 2 2 1 1 2 2 3 3 3 4 3 3 3 2 2 3 2 2 2 2 2 2 3 3 4 4 5 4 4 4 4 5 4 4 4 4 5 4 4 4 5
Wind_Direction
332 54 136 189 202 199 198 205 209 244 209 181 178 174 165 161 154 150 152 148 142 135 111 99 87 75 67 59 46 48 54 50 47 44 41 41 42 41 43 44 48 47 48 46
233 209 210 233 225 215 214 222 236 259 274 280 167 140 154 169 170 176 163 147 140 136 124 110 93 80 78 69 57 58 61 58 56 55 51 50 50 50 52 52 52 52 53 53
229 172 237 250 223 213 209 204 209 227 231 223 190 178 183 189 185 174 147 139 140 140 129 113 98 84 83 76 74 71 70 67 63 63 60 56 58 58 56 55 57 58 56 56
226 134 241 239 148 193 212 218 212 220 212 201 187 159 137 144 172 148 135 136 136 132 124 116 109 104 97 88 84 82 77 74 73 73 71 65 62 61 59 59 61 62 61 59
213 241 265 223 172 172 191 228 211 215 224 219 155 29 204 107 92 115 124 127 128 126 126 123 121 120 112 102 93 86 79 73 73 78 79 73 69 66 65 69 67 65 68 67
219 244 260 87 127 145 172 249 184 182 189 187 165 212 192 132 111 106 109 112 118 122 124 126 125 121 117 113 104 96 90 83 79 81 85 83 83 82 80 82 81 75 66 69
231 241 268 132 133 142 190 169 90 103 117 130 152 146 140 134 128 128 126 126 128 131 131 133 130 127 126 122 120 114 108 104 99 96 97 96 88 87 98 97 90 81 75 67
202 225 245 138 145 190 129 100 90 88 88 98 104 118 135 143 144 142 139 142 144 141 139 137 139 140 138 140 140 133 127 120 116 113 107 102 93 74 78 90 88 80 82 65
198 210 161 155 148 102 100 105 101 101 100 115 136 160 162 162 161 161 161 161 158 156 153 156 160 156 154 160 158 154 146 138 131 123 116 117 110 76 42 56 68 58 70 69
254 236 182 176 171 147 126 114 106 105 117 143 182 180 172 172 172 173 173 170 168 166 168 171 173 168 158 159 166 161 151 146 145 138 130 109 90 61 50 42 42 46 51 36
243 255 226 197 184 166 139 123 118 111 131 176 208 209 187 184 181 180 177 172 173 177 180 177 170 164 155 159 165 160 154 155 152 145 137 115 89 67 75 76 78 73 59 34
225 232 186 154 123 107 118 118 110 112 157 220 218 226 205 196 185 179 178 174 177 183 183 175 168 165 162 166 168 161 160 163 162 157 153 148 142 115 88 126 102 77 60 3
137 48 74 100 91 83 95 90 65 352 275 267 250 232 214 204 187 180 180 182 186 187 181 172 170 171 169 170 171 167 166 168 165 164 167 168 161 163 191 214 211 221 243 289
98 103 126 128 117 95 79 60 11 307 281 259 247 242 223 211 195 191 192 189 184 178 177 174 174 177 171 168 167 167 164 168 165 168 166 164 167 171 178 207 260 266 242 251
115 87 97 93 94 90 74 25 313 288 280 271 243 236 228 222 215 208 194 176 171 176 180 177 180 178 167 165 167 167 162 163 166 159 155 156 158 165 202 235 250 265 272 271
123 104 97 102 106 101 22 304 293 297 302 291 271 250 235 230 224 207 185 173 180 189 187 183 185 176 164 165 167 167 168 170 164 160 161 165 172 191 216 232 246 256 264 263
136 153 156 169 199 269 321 327 313 307 303 291 280 271 244 227 221 208 195 188 191 192 187 186 183 168 166 169 169 168 162 170 171 164 172 178 184 199 213 224 239 249 253 268
80 91 95 83 53 359 340 333 319 307 298 294 286 269 243 224 223 216 197 180 180 190 192 183 171 165 169 172 170 164 162 165 170 175 176 182 191 200 209 223 239 252 258 274
76 70 60 50 30 359 335 326 319 311 307 305 292 272 254 237 226 209 179 179 194 206 203 183 175 170 174 178 170 163 162 165 171 176 176 197 204 204 212 223 235 244 253 257
80 68 55 42 26 2 342 336 328 321 319 315 304 289 274 254 225 200 191 204 211 206 180 178 176 176 177 178 173 166 168 171 176 178 181 189 200 209 215 223 231 240 247 253
75 62 48 31 15 6 3 350 342 334 332 333 331 321 305 283 228 198 203 228 219 178 175 183 181 179 178 179 177 171 173 177 181 182 187 195 203 211 216 224 234 244 248 254
71 54 34 18 8 2 2 358 349 341 343 346 345 342 336 324 290 248 232 230 203 188 184 186 183 187 186 182 177 174 179 182 183 183 189 195 202 210 218 223 231 239 245 249
76 48 26 12 358 341 348 3 355 347 343 339 336 333 324 307 283 259 273 253 203 206 198 194 196 196 193 184 177 179 182 185 188 190 192 195 201 207 216 225 230 236 242 249
74 42 16 352 341 344 352 347 338 332 330 330 335 335 330 320 306 276 274 271 246 230 211 207 207 205 197 184 177 181 185 187 189 189 190 193 200 208 216 224 233 238 243 252
113 314 326 337 341 340 336 330 329 334 337 333 335 339 339 328 303 302 292 273 264 251 222 218 216 211 197 177 182 186 185 188 188 187 190 194 203 211 219 224 231 239 245 251
215 243 255 263 275 306 317 321 322 325 330 329 329 329 329 322 313 311 303 288 276 257 226 205 207 210 190 180 183 186 185 195 206 201 196 199 207 212 220 227 236 239 247 253
226 239 251 265 251 247 283 298 303 313 322 322 318 318 321 319 317 315 310 300 291 263 219 199 197 194 185 182 182 182 182 185 189 191 194 201 207 215 222 228 234 241 249 257